STARLINK-2624, 48358

Orbit data source: Space-Track

STARLINK-2624, 48358 is a payload satellite owned by SpaceX/Seattle (US) in LEO that was launched on Tue, 04 May 2021 UTC via an FALCON 9 launch vehicle from the Air Force Eastern Test Range (AFETR). Payload-class satellites include a variety of spacecraft equipped with specific instruments for various scientific and technological missions. These include communications satellites like Starlink; space stations such as the ISS; scientific satellites like the Hubble; Earth observation satellites from companies like Planet Labs, Umbra, and HawkEye 360; GPS; miniature CubeSats for education and research; and military/defense satellites.

Loading next visibility...
Identifier
48358, 2021-038F
Orbit
LEO
Country
Flag of USUS
Related business
Manufacturer
SpaceX/Seattle
Mission
Operational Commercial Communications
Bus & Motor
STARLINK, Unknown motor
Mass
260 kg wet, ~248 kg dry
Launch date (UTC)
2021-05-04 (5 years ago)
Launch vehicle
FALCON 9
Launch site
Air Force Eastern Test Range (AFETR)
Object type
Payload
Rocket body
Debris
Shape & HBR
Box + 1 Pan, 10.1 m
Radar Cross Section
13.562 m², Large (>1 m²)

Expand to show TLE details & history
Last TLE update: 2 days ago

TLE from 2 days ago
0 STARLINK-2624
1 48358U 21038F   26171.42984683 -.00000140  00000-0  72308-5 0  9994
2 48358  53.1555 240.1566 0000821  86.7110 273.3985 15.31697295282818
Epoch: 2026-06-20T10:18Z
TLE epoch observation values (Epoch: 2026-06-20T10:18:58.766Z)
Latitude
-0.00002°
Longitude
176.76713°
Altitude
471.615 km
Speed
7.631 km/s
True Right ascension
16h 00m 37s
True Declination
0° 00' 00"
Sunlit
Object was in full shadow at epoch
Visualization orbit readout
Latitude
Unknown
Longitude
Unknown
Altitude
Unknown
Speed
Unknown
Apparent Right ascension
Unknown
Apparent Declination
Unknown
Sunlit
N/A
Visualization observer readout
Local Sidereal Time
23:08:41
Azimuth
Unknown
Elevation
Unknown
Doppler factor
Unknown
Orbital elements
Apogee altitude
471.568 km
Perigee altitude
470.443 km
Semi-major axis
6,849.142 km
Eccentricity
0.00008
Inclination
53.1555°
RAAN
240.1566°
Arg. of periapsis
86.711°
True anomaly
273.38911°
Mean anomaly
273.3985°
Eccentric anomaly
273.3938°
Mean motion
3.82903 °/min
Orbital period
94.02 mins
BSTAR
0.0000072308
Loading maneuver chart data...
Computing Atmospheric mass density...

Documentation

Showing up to 5 results
|